This demonstration page uses our WeatherBlox Daily Observations layout. Learn more.

Left ArrowRight Arrow

39.92423, -83.80882

Hourly Observations for February 24, 2021

Temp ( °F °C ) Dew Point ( °F °C ) Humidity (%) Winds ( mph kmh ) Pressure ( in mb ) Visibility ( mi km ) Precip ( " mm )
12:56 am 00:56 Clear 37 2.8 27 -2.8 67 67 S 7 11 29.98 1015 10 16 0.00 0.00
1:56 am 01:56 Clear 38 3.3 26 -3.3 62 62 S 7 11 29.97 1015 10 16 0.00 0.00
2:56 am 02:56 Clear 38 3.3 26 -3.3 62 62 S 8 13 29.93 1014 10 16 0.00 0.00
3:56 am 03:56 Clear 40 4.4 27 -2.8 60 60 S 8 13 29.92 1013 10 16 0.00 0.00
4:56 am 04:56 Clear 39 3.9 28 -2.2 65 65 S 8 13 29.91 1013 10 16 0.00 0.00
5:56 am 05:56 Clear 41 5 31 -0.6 67 67 S 13 20 29.90 1013 10 16 0.00 0.00
6:56 am 06:56 Clear 43 6.1 32 0 65 65 S 13 20 29.87 1012 10 16 0.00 0.00
7:56 am 07:56 Sunny 44 6.7 32 0 63 63 SSW 14 22 29.87 1012 10 16 0.00 0.00
8:56 am 08:56 Mostly Cloudy 47 8.3 32 0 56 56 SSW 15 24 29.86 1011 10 16 0.00 0.00
9:56 am 09:56 Mostly Sunny 48 8.9 32 0 54 54 SW 17 28 29.85 1011 10 16 0.00 0.00
10:56 am 10:56 Sunny 51 10.6 33 0.6 50 50 SW 17 28 29.82 1010 10 16 0.00 0.00
11:56 am 11:56 Sunny 54 12.2 36 2.2 51 51 SW 17 28 29.82 1010 10 16 0.00 0.00
12:56 pm 12:56 Partly Cloudy 55 12.8 38 3.3 53 53 WSW 15 24 29.81 1009 10 16 0.00 0.00
1:56 pm 13:56 Cloudy 54 12.2 39 3.9 57 57 W 16 26 29.80 1009 10 16 0.00 0.00
2:56 pm 14:56 Cloudy 50 10 42 5.6 74 74 W 16 26 29.85 1011 10 16 0.00 0.00
3:56 pm 15:56 Cloudy 49 9.4 44 6.7 83 83 W 12 19 29.89 1012 10 16 0.00 0.00
4:56 pm 16:56 Mostly Cloudy 49 9.4 40 4.4 71 71 W 14 22 29.92 1013 10 16 0.00 0.00
5:56 pm 17:56 Sunny 46 7.8 34 1.1 63 63 W 13 20 29.95 1014 10 16 0.00 0.00
6:56 pm 18:56 Clear 44 6.7 34 1.1 68 68 WNW 16 26 30.01 1016 10 16 0.00 0.00
7:56 pm 19:56 Clear 40 4.4 34 1.1 79 79 NW 13 20 30.06 1018 10 16 0.00 0.00
8:19 pm 20:19 Mostly Cloudy 39 4 36 2 87 87 NNW 14 22 30.09 1019 10 16 0.00 0.00
8:56 pm 20:56 Mostly Clear 37 2.8 33 0.6 86 86 NW 12 19 30.09 1019 10 16 0.00 0.00
9:56 pm 21:56 Clear 36 2.2 32 0 86 86 NW 13 20 30.13 1020 10 16 0.00 0.00
10:19 pm 22:19 Mostly Cloudy 36 2 32 0 87 87 NW 8 13 30.17 1022 10 16 0.00 0.00
10:56 pm 22:56 Cloudy 36 2.2 33 0.6 89 89 NW 9 15 30.16 1021 10 16 0.00 0.00
11:56 pm 23:56 Mostly Cloudy 34 1.1 31 -0.6 89 89 NNW 9 15 30.18 1022 10 16 0.00 0.00

Powered by AerisWeather